Location: Madrid
(40.4000°N, 3.6830°W)
Time: 13:14:38
(UTC+02:00)

ISS - Pass Details

Date: 26 May 2020
Orbit: 417 x 419 km, 51.6° (Epoch: 31 May)

Event Time Altitude Azimuth Distance (km) Brightness Sun altitude
Rises 01:31:33 0° 307° (NW) 2,368 0.7 -27.7°
Reaches altitude 10° 01:33:39 10° 309° (NW) 1,501 -0.4 -27.8°
Enters shadow 01:34:19 15° 310° (NW) 1,234 -0.9 -27.8°
